Weather History for Moab, UT

Change the Weather History Date:

Monday, February 11, 2013

  Actual Average Record
Temperature  
Mean Temperature 28 °F 34 °F  
Max Temperature 34 °F 45 °F 75 °F (1962)
Min Temperature 22 °F 23 °F -5 °F (1929)
Degree Days  
Heating Degree Days 37 31  
Month to date heating degree days 372 359  
Since 1 July heating degree days 4378 3934  
Cooling Degree Days 0 0  
Month to date cooling degree days 0 0  
Year to date cooling degree days 0 0  
Moisture  
Dew Point 23 °F    
Average Humidity 74    
Maximum Humidity 92    
Minimum Humidity 56    
Precipitation  
Precipitation 0.14 in 0.02 in 0.30 in (1950)
Month to date precipitation 0.15 0.20  
Year to date precipitation 0.59 0.84  
Sea Level Pressure  
Sea Level Pressure 29.99 in    
Wind  
Wind Speed 5 mph (NNW)    
Max Wind Speed 12 mph    
Max Gust Speed 13 mph    
Visibility 5 miles    
Events Snow    
T = Trace of Precipitation, MM = Missing Value Source: NWS Daily Summary

Daily Weather History Graph

Daily Weather History Graph

Search for Another Location

Airport:

Trip Planner

Search our weather history database for the weather conditions in past years. The results will help you decide how hot, cold, wet, or windy it might be!

Date:

Astronomy

Feb. 11, 2013 Rise Set
Actual Time 7:14 AM MST 5:52 PM MST
Civil Twilight 6:47 AM MST 6:20 PM MST
Nautical Twilight 6:15 AM MST 6:51 PM MST
Astronomical Twilight 5:44 AM MST 7:22 PM MST
Moon 7:42 AM MST (2/11) 7:51 PM MST (2/11)
Length of Visible Light 11h 33m
Length of Day
10h 38m
Waxing Crescent, 3% of the Moon is Illuminated
Feb 11
Waxing Crescent
Feb 17
First Quarter
Feb 25
Full
Mar 4
Last Quarter
Mar 11
New

Hourly Weather History & Observations

Time (MST) Temp. Windchill Dew Point Humidity Pressure Visibility Wind Dir Wind Speed Gust Speed Precip Events Conditions
12:03 AM 30.2 °F 23.4 °F 26.6 °F 86% 29.88 in 3.0 mi NE 6.9 mph - 0.00 in Snow Light Snow
12:06 AM 30.2 °F 23.4 °F 26.6 °F 86% 29.88 in 1.8 mi NE 6.9 mph - 0.00 in Snow Light Snow
12:21 AM 28.4 °F 22.2 °F 26.6 °F 93% 29.88 in 1.0 mi NNE 5.8 mph - 0.00 in Snow Light Snow
12:28 AM 28.4 °F 24.6 °F 26.6 °F 93% 29.88 in 0.8 mi North 3.5 mph - 0.01 in Snow Light Snow
12:53 AM 28.9 °F - 27.0 °F 92% 29.94 in 0.8 mi Calm Calm - 0.04 in Snow Light Snow
1:10 AM 28.4 °F 23.3 °F 26.6 °F 93% 29.89 in 1.0 mi NNW 4.6 mph - 0.02 in Snow Light Snow
1:33 AM 28.4 °F 22.2 °F 26.6 °F 93% 29.89 in 0.8 mi NW 5.8 mph - 0.04 in Snow Light Snow
1:44 AM 28.4 °F 21.2 °F 26.6 °F 93% 29.89 in 1.5 mi NW 6.9 mph - 0.04 in Snow Light Snow
1:50 AM 28.4 °F 20.4 °F 26.6 °F 93% 29.89 in 2.0 mi NNW 8.1 mph - 0.04 in Snow Light Snow
1:53 AM 28.0 °F 19.3 °F 26.1 °F 92% 29.94 in 2.0 mi NW 9.2 mph - 0.04 in Snow Light Snow
1:57 AM 26.6 °F 17.5 °F 26.6 °F 100% 29.89 in 2.5 mi NW 9.2 mph - 0.00 in Snow Light Snow
2:01 AM 26.6 °F 16.8 °F 26.6 °F 100% 29.89 in 3.0 mi NNW 10.4 mph - 0.00 in Snow Light Snow
2:53 AM 27.0 °F 18.7 °F 25.0 °F 92% 29.95 in 10.0 mi NNW 8.1 mph - 0.00 in   Overcast
3:53 AM 27.0 °F 18.7 °F 25.0 °F 92% 29.94 in 6.0 mi NNW 8.1 mph - 0.00 in Snow Light Snow
4:13 AM 26.6 °F 18.2 °F 24.8 °F 93% 29.90 in 1.8 mi NNW 8.1 mph - 0.00 in Snow Light Snow
4:17 AM 26.6 °F 20.0 °F 24.8 °F 93% 29.90 in 2.0 mi NNW 5.8 mph - 0.00 in Snow Light Snow
4:34 AM 26.6 °F 18.2 °F 24.8 °F 93% 29.90 in 1.8 mi NNW 8.1 mph - 0.01 in Snow Light Snow
4:48 AM 26.6 °F 17.5 °F 24.8 °F 93% 29.91 in 1.2 mi North 9.2 mph - 0.02 in Snow Light Snow
4:53 AM 26.6 °F 17.5 °F 24.8 °F 93% 29.91 in 1.0 mi NNW 9.2 mph - N/A Snow Light Snow
5:06 AM 26.6 °F 16.8 °F 24.8 °F 93% 29.91 in 0.8 mi NNW 10.4 mph - 0.01 in Snow Light Snow
5:38 AM 26.6 °F 20.0 °F 24.8 °F 93% 29.92 in 1.0 mi NNW 5.8 mph - 0.03 in Snow Light Snow
5:53 AM 26.1 °F 19.4 °F 25.0 °F 96% 29.98 in 1.5 mi NNW 5.8 mph - 0.03 in Snow Light Snow
6:05 AM 26.6 °F 21.2 °F 24.8 °F 93% 29.93 in 2.5 mi North 4.6 mph - 0.00 in Snow Light Snow
6:13 AM 26.6 °F - 24.8 °F 93% 29.93 in 3.0 mi Calm Calm - 0.00 in Snow Light Snow
6:19 AM 26.6 °F - 24.8 °F 93% 29.93 in 2.5 mi Calm Calm - 0.00 in Snow Light Snow
6:46 AM 24.8 °F 19.1 °F 23.0 °F 93% 29.94 in 4.0 mi North 4.6 mph - 0.01 in Snow Light Snow
6:53 AM 25.0 °F 18.1 °F 23.0 °F 92% 30.01 in 4.0 mi North 5.8 mph - 0.01 in Snow Light Snow
7:13 AM 24.8 °F 19.1 °F 21.2 °F 86% 29.95 in 3.0 mi North 4.6 mph - 0.00 in Snow Light Snow
7:23 AM 24.8 °F 20.5 °F 21.2 °F 86% 29.96 in 2.0 mi North 3.5 mph - 0.00 in Snow Light Snow
7:33 AM 24.8 °F 19.1 °F 23.0 °F 93% 29.96 in 1.5 mi North 4.6 mph - 0.00 in Snow Light Snow
7:53 AM 25.0 °F 19.3 °F 21.9 °F 88% 30.04 in 1.5 mi North 4.6 mph - 0.00 in Snow Light Snow
8:36 AM 24.8 °F 20.5 °F 21.2 °F 86% 29.99 in 3.0 mi NNE 3.5 mph - 0.00 in Snow Light Snow
8:46 AM 26.6 °F - 23.0 °F 86% 30.00 in 2.0 mi Calm Calm - 0.00 in Snow Light Snow
8:53 AM 26.1 °F - 24.1 °F 92% 30.06 in 1.8 mi Calm Calm - 0.00 in Snow Light Snow
9:00 AM 26.6 °F - 23.0 °F 86% 30.00 in 2.5 mi Calm Calm - 0.00 in Snow Light Snow
9:27 AM 26.6 °F 22.6 °F 24.8 °F 93% 30.01 in 5.0 mi South 3.5 mph - 0.00 in Snow Light Snow
9:53 AM 26.1 °F 21.9 °F 23.0 °F 88% 30.09 in 10.0 mi South 3.5 mph - 0.00 in   Overcast
10:53 AM 27.0 °F 20.5 °F 21.9 °F 81% 30.11 in 10.0 mi SSE 5.8 mph - N/A   Clear
11:53 AM 28.9 °F 21.9 °F 21.9 °F 75% 30.10 in 10.0 mi SE 6.9 mph - N/A   Partly Cloudy
12:53 PM 28.9 °F 25.2 °F 21.9 °F 75% 30.09 in 10.0 mi South 3.5 mph - N/A   Clear
1:53 PM 30.9 °F 26.2 °F 21.0 °F 67% 30.07 in 10.0 mi South 4.6 mph - N/A   Clear
2:53 PM 33.1 °F - 19.0 °F 56% 30.07 in 10.0 mi Calm Calm - N/A   Clear
3:53 PM 33.1 °F 28.7 °F 19.9 °F 59% 30.07 in 10.0 mi ESE 4.6 mph - N/A   Clear
4:53 PM 34.0 °F 31.0 °F 19.0 °F 54% 30.07 in 10.0 mi SE 3.5 mph - N/A   Clear
5:53 PM 30.9 °F 26.2 °F 21.0 °F 67% 30.10 in 10.0 mi SE 4.6 mph - N/A   Clear
6:53 PM 28.0 °F - 21.9 °F 78% 30.13 in 10.0 mi Calm Calm - N/A   Clear
7:53 PM 27.0 °F - 21.0 °F 78% 30.15 in 10.0 mi Calm Calm - N/A   Partly Cloudy
8:53 PM 23.0 °F 13.1 °F 18.0 °F 81% 30.18 in 10.0 mi NW 9.2 mph - N/A   Partly Cloudy
9:53 PM 24.1 °F 19.7 °F 19.0 °F 81% 30.18 in 10.0 mi WSW 3.5 mph - N/A   Mostly Cloudy
10:53 PM 21.9 °F 17.2 °F 18.0 °F 85% 30.19 in 10.0 mi WSW 3.5 mph - N/A   Partly Cloudy
11:53 PM 21.9 °F 15.7 °F 18.0 °F 85% 30.20 in 10.0 mi WNW 4.6 mph - N/A   Clear